CCA4656 ZUTF-ZSAM

Flight info

Callsign CCA4656
Flight time N/A
Altitude 31100
Route ATVAX9C ATVAX W234 NIXID B330 QP G586 WYN DCT MABAG DCT XEBUL DCT NUVGA DCT VETIB W155 TEBON TEBON8X
Aircraft B738/M-SDE2E3FGHIRWXY/LB1

Departure

Time N/A
Airport Chengdu Tianfu International Airport (ZUTF)

Arrival

Time 2026-05-04 08:11
Airport Xiamen Gaoqi International Airport (ZSAM)
Time Latitude Longitude Altitude Speed Heading
2026-05-04 07:23 24.42795 113.35785 31185 ft 553 kts 100°
2026-05-04 07:23 24.42357 113.40025 31179 ft 552 kts 100°
2026-05-04 07:24 24.41494 113.48382 31165 ft 552 kts 100°
2026-05-04 07:24 24.40643 113.56702 31151 ft 551 kts 100°
2026-05-04 07:26 24.37198 113.90130 31145 ft 552 kts 100°
2026-05-04 07:27 24.36321 113.98534 31151 ft 549 kts 100°
2026-05-04 07:27 24.35437 114.06931 31153 ft 551 kts 101°
2026-05-04 07:28 24.34573 114.15220 31161 ft 551 kts 99°
2026-05-04 07:28 24.33782 114.23612 31163 ft 551 kts 99°
2026-05-04 07:29 24.33025 114.32043 31167 ft 550 kts 99°
2026-05-04 07:29 24.32265 114.40448 31186 ft 552 kts 99°
2026-05-04 07:30 24.31494 114.48807 31168 ft 553 kts 99°
2026-05-04 07:30 24.30722 114.57259 31160 ft 552 kts 98°
2026-05-04 07:31 24.30040 114.65135 31160 ft 550 kts 99°
2026-05-04 07:33 24.27190 114.98185 31155 ft 551 kts 99°
2026-05-04 07:33 24.26475 115.06619 31153 ft 553 kts 99°
2026-05-04 07:34 24.25760 115.14984 31152 ft 551 kts 99°
2026-05-04 07:34 24.25029 115.23439 31154 ft 551 kts 98°
2026-05-04 07:35 24.24298 115.31767 31152 ft 552 kts 99°
2026-05-04 07:35 24.23930 115.35952 30966 ft 546 kts 98°
2026-05-04 07:35 24.23568 115.40092 30621 ft 536 kts 98°
2026-05-04 07:36 24.23215 115.44114 30209 ft 528 kts 99°
2026-05-04 07:36 24.22876 115.48153 29578 ft 526 kts 98°
2026-05-04 07:38 24.20913 115.76507 29157 ft 535 kts 98°
2026-05-04 07:38 24.20628 115.80588 29158 ft 536 kts 98°
2026-05-04 07:38 24.20042 115.88866 29159 ft 535 kts 98°
2026-05-04 07:39 24.19455 115.96983 29161 ft 535 kts 98°
2026-05-04 07:39 24.18859 116.05145 29154 ft 536 kts 97°
2026-05-04 07:40 24.18279 116.13058 29159 ft 536 kts 97°
2026-05-04 07:40 24.17670 116.21283 29164 ft 537 kts 98°
2026-05-04 07:41 24.17064 116.29453 29168 ft 536 kts 98°
2026-05-04 07:41 24.16455 116.37580 29166 ft 535 kts 97°
2026-05-04 07:42 24.15848 116.45702 29167 ft 535 kts 97°
2026-05-04 07:42 24.15433 116.53902 29167 ft 537 kts 95°
2026-05-04 07:43 24.15153 116.62090 29166 ft 535 kts 94°
2026-05-04 07:43 24.14883 116.70211 29167 ft 535 kts 95°
2026-05-04 07:44 24.14588 116.78364 29165 ft 536 kts 95°
2026-05-04 07:44 24.14269 116.86533 29165 ft 534 kts 95°
2026-05-04 07:45 24.14088 116.94508 29168 ft 538 kts 93°
2026-05-04 07:45 24.14068 117.02698 29167 ft 537 kts 92°
2026-05-04 07:46 24.14071 117.10854 29170 ft 537 kts 92°
2026-05-04 07:46 24.14053 117.19087 29153 ft 536 kts 93°
2026-05-04 07:47 24.14039 117.23164 28974 ft 526 kts 92°
2026-05-04 07:47 24.14228 117.27102 28808 ft 514 kts 86°
2026-05-04 07:47 24.14650 117.30979 28652 ft 501 kts 84°
2026-05-04 07:49 24.12258 117.56091 25114 ft 466 kts 109°
2026-05-04 07:49 24.11194 117.59338 24500 ft 461 kts 118°
2026-05-04 07:49 24.09642 117.62457 23666 ft 459 kts 128°
2026-05-04 07:50 24.07674 117.65223 22816 ft 458 kts 137°
2026-05-04 07:50 24.05384 117.67542 22053 ft 453 kts 147°
2026-05-04 07:50 24.02782 117.69415 21406 ft 444 kts 157°
2026-05-04 07:50 24.00003 117.70758 20857 ft 432 kts 167°
2026-05-04 07:51 23.97149 117.71558 20242 ft 422 kts 176°
2026-05-04 07:51 23.94252 117.71811 19647 ft 413 kts 186°
2026-05-04 07:51 23.91422 117.71514 19028 ft 403 kts 196°
2026-05-04 07:51 23.88817 117.70568 18464 ft 388 kts 213°
2026-05-04 07:52 23.86789 117.68729 17844 ft 376 kts 234°
2026-05-04 07:52 23.85426 117.66322 17312 ft 368 kts 246°
2026-05-04 07:52 23.84524 117.63821 16726 ft 365 kts 253°
2026-05-04 07:52 23.83907 117.61126 16108 ft 363 kts 260°
2026-05-04 07:53 23.83628 117.58429 15553 ft 360 kts 268°
2026-05-04 07:54 23.87738 117.42502 14043 ft 296 kts 313°
2026-05-04 07:55 23.89359 117.41104 13888 ft 290 kts 320°
2026-05-04 07:55 23.91071 117.39950 13676 ft 285 kts 325°
2026-05-04 07:55 23.92846 117.38985 13397 ft 283 kts 329°
2026-05-04 07:55 23.94724 117.38154 13037 ft 284 kts 336°
2026-05-04 07:56 23.96667 117.37707 12633 ft 293 kts 348°
2026-05-04 07:56 23.98740 117.37698 12235 ft 298 kts 359°
2026-05-04 07:56 24.00828 117.38036 11852 ft 301 kts
2026-05-04 07:56 24.02886 117.38688 11453 ft 306 kts 17°
2026-05-04 07:57 24.04759 117.39777 11124 ft 309 kts 30°
2026-05-04 07:57 24.06460 117.41238 10784 ft 310 kts 39°
2026-05-04 07:57 24.07993 117.42904 10430 ft 310 kts 44°
2026-05-04 07:57 24.09444 117.44662 10067 ft 309 kts 46°
2026-05-04 07:58 24.10877 117.46439 9730 ft 306 kts 45°
2026-05-04 07:58 24.12294 117.48171 9474 ft 305 kts 45°
2026-05-04 07:58 24.13746 117.49920 8978 ft 309 kts 45°
2026-05-04 07:58 24.15201 117.51656 8490 ft 311 kts 45°
2026-05-04 07:59 24.16676 117.53410 7994 ft 313 kts 45°
2026-05-04 07:59 24.18178 117.55195 7495 ft 315 kts 46°
2026-05-04 07:59 24.19677 117.56979 6994 ft 316 kts 46°
2026-05-04 07:59 24.21176 117.58772 6502 ft 317 kts 46°
2026-05-04 08:00 24.22633 117.60510 6017 ft 317 kts 47°
2026-05-04 08:00 24.24149 117.62320 5478 ft 315 kts 47°
2026-05-04 08:00 24.25617 117.64078 4992 ft 304 kts 47°
2026-05-04 08:02 24.33703 117.73772 4874 ft 216 kts 47°
2026-05-04 08:02 24.34692 117.74966 4861 ft 204 kts 46°
2026-05-04 08:02 24.35626 117.76090 4852 ft 192 kts 48°
2026-05-04 08:03 24.36517 117.77203 4868 ft 194 kts 46°
2026-05-04 08:03 24.37460 117.78300 4876 ft 197 kts 44°
2026-05-04 08:03 24.38393 117.79398 4862 ft 194 kts 47°
2026-05-04 08:03 24.39296 117.80531 4868 ft 194 kts 50°
2026-05-04 08:04 24.39990 117.81786 4763 ft 194 kts 72°
2026-05-04 08:04 24.40117 117.83228 4579 ft 191 kts 89°
2026-05-04 08:04 24.40107 117.84699 4314 ft 189 kts 85°
2026-05-04 08:04 24.40193 117.86154 4023 ft 190 kts 82°
2026-05-04 08:05 24.40316 117.87585 3856 ft 183 kts 81°
2026-05-04 08:05 24.40431 117.88934 3852 ft 170 kts 81°
2026-05-04 08:05 24.40517 117.90222 3871 ft 172 kts 83°
2026-05-04 08:05 24.40615 117.91549 3857 ft 172 kts 83°
2026-05-04 08:06 24.40715 117.92865 3743 ft 173 kts 81°
2026-05-04 08:06 24.41035 117.94115 3588 ft 167 kts 56°
2026-05-04 08:06 24.41773 117.95089 3449 ft 164 kts 47°
2026-05-04 08:06 24.42519 117.96046 3293 ft 164 kts 51°
2026-05-04 08:08 24.47196 118.02740 2066 ft 152 kts 50°
2026-05-04 08:08 24.47851 118.03648 1857 ft 150 kts 51°
2026-05-04 08:10 24.53142 118.10998 254 ft 157 kts 50°
2026-05-04 08:11 24.53826 118.11945 84 ft 157 kts 50°
2026-05-04 08:11 24.54736 118.13208 72 ft 62 kts 53°
2026-05-04 08:11 24.54915 118.13528 72 ft 36 kts 73°
2026-05-04 08:12 24.54903 118.13715 72 ft 20 kts 141°
2026-05-04 08:12 24.54803 118.13720 72 ft 16 kts 233°
2026-05-04 08:12 24.54735 118.13629 72 ft 16 kts 229°
2026-05-04 08:12 24.54662 118.13532 72 ft 16 kts 232°
2026-05-04 08:13 24.54594 118.13436 72 ft 17 kts 232°
2026-05-04 08:13 24.54517 118.13326 72 ft 16 kts 233°
2026-05-04 08:13 24.54458 118.13240 72 ft 16 kts 232°
2026-05-04 08:13 24.54383 118.13134 72 ft 18 kts 232°
2026-05-04 08:14 24.54299 118.13013 72 ft 21 kts 233°
2026-05-04 08:14 24.54207 118.12885 72 ft 20 kts 232°
2026-05-04 08:14 24.54127 118.12760 72 ft 19 kts 232°
2026-05-04 08:16 24.53724 118.12475 72 ft 0 kts 142°